Regional Weather Roundup
Issued by NWS Green Bay, WI

Home | Current Version | Previous Version | Graphics & Text | Print | Product List | Glossary Off
Versions: 1 2 3 4 5 6 7 8 9 10 11 12 13 14 15 16 17 18 19 20 21 22 23 24 25 26 27 28 29 30 31 32 33 34 35 36 37 38 39 40 41 42 43 44 45 46 47 48 49 50

000
ASUS43 KGRB 030700
RWRGRB

NORTH-CENTRAL AND NORTHEAST WISCONSIN REGIONAL WEATHER ROUNDUP
NATIONAL WEATHER SERVICE GREEN BAY WI
200 AM CDT MON AUG 03 2015

WIZ005-009-010>012-018-019-030800-
NORTH CENTRAL WISCONSIN

CITY           SKY/WX    TMP DP  RH WIND       PRES   REMARKS
IRONWOOD       MOCLDY    61  52  72 W6        29.74S
MANITOWISH WTR NOT AVBL
ARBOR VITAE    NOT AVBL
EAGLE RIVER    NOT AVBL
LAND O LAKES   NOT AVBL
RHINELANDER    MOCLDY    55  52  89 W6        29.79R
PHILLIPS       CLOUDY    56  51  81 CALM      29.80R
ANTIGO         NOT AVBL
TOMAHAWK       NOT AVBL
MERRILL        NOT AVBL
$$

WIZ013-073-030800-
NORTHEAST WISCONSIN

CITY           SKY/WX    TMP DP  RH WIND       PRES   REMARKS
IRON MOUNTAIN  PTCLDY    56  52  86 CALM      29.72R
MARINETTE      CLEAR     61  55  82 NW3       29.70S
$$

WIZ017-030-035>037-045-030800-
CENTRAL WISCONSIN

CITY           SKY/WX    TMP DP  RH WIND       PRES   REMARKS
MEDFORD        NOT AVBL
WAUSAU         CLEAR     61  52  72 W7        29.78R
MOSINEE        NOT AVBL
MARSHFIELD     CLEAR     60  52  74 NW8       29.81R
WISC RAPIDS    PTCLDY    62  55  77 NW6       29.81R
STEVENS POINT  NOT AVBL
WAUPACA        NOT AVBL
SHAWANO        NOT AVBL
CLINTONVILLE   PTCLDY    61  55  82 W6        29.76R
$$

WIZ038-039-048-051-030800-
FOX VALLEY

CITY           SKY/WX    TMP DP  RH WIND       PRES   REMARKS
NWS GREEN BAY  CLEAR     63  60  90 W8        29.74R
APPLETON       NOT AVBL
OSHKOSH        CLEAR     64  59  83 NW6       29.75R
FOND DU LAC    CLEAR     65  61  87 NW8       29.76R
$$

WIZ022-050-052-030800-
EAST CENTRAL WISCONSIN

CITY           SKY/WX    TMP DP  RH WIND       PRES   REMARKS
STURGEON BAY   CLEAR     63  57  82 W5        29.73S
MANITOWOC      NOT AVBL
SHEBOYGAN      MOCLDY    62  61  96 W5        29.74R
$$

LMZ563-521-522-541>543-030800-
LAKESHORE

STATION/POSITION TIME  TEMP    WIND        PRES    VSBY  WAVE
                       AIR SEA DIR/SP/G                  HT/PER
                 (UTC) (F)     (DEG/KT/KT) (MB)    (MI)  (FT/S)
SHEBOYGAN LKSHOR 0600   67     280/ 10/ 11 1006.4R
KEWAUNEE LKSHORE 0600   64     300/  4/  6 1005.5R
ALGOMA MARINA    0612             CALM       N/A
NORTHPORT PIER   0600   65     270/  4/  6 1005.1R
N MID LAKE BUOY  0550   67 68  260/ 10/ 12 1003.9R         2/ 5
S GREEN BAY BUOY 0600   65 67  280/  8/ 10 1007.3R
CHAMBERS ISLAND  0640   66     270/  4/  9 1005.8R
MENOMINEE LKSHOR 0600   65     270/  6/  9 1006.5R
$$


USA.gov is the U.S. government's official web portal to all federal, state and local government web resources and services.